Location: Mountain Grove
(34.0887°N, 86.6172°W)
Time: 21:59:10
(UTC+00:00)

CZ-4C R/B - Pass Details

Date: 14 July 2020
Orbit: 632 x 1370 km, 63.4° (Epoch: 08 August)

Event Time Altitude Azimuth Distance (km) Brightness Sun altitude
Rises 05:32:13 0° 328° (NNW) 3,984 6.5 -34.1°
Reaches altitude 10° 05:34:46 10° 327° (NNW) 3,112 5.8 -34.2°
Enters shadow 05:42:00 77° 283° (WNW) 1,328 3.0 -34.3°
